Regional Weather Roundup
Issued by NWS

Home | Current Version | Previous Version | Graphics & Text | Print | Product List | Glossary On
Versions: 1 2 3 4 5 6 7 8 9 10 11 12 13 14 15 16 17 18 19 20 21 22 23 24 25 26 27 28 29 30 31 32 33 34 35 36 37 38 39 40 41 42 43 44 45 46 47 48 49 50
000
ASUS43 KLOT 260909
RWRIL

ILLINOIS REGIONAL WEATHER ROUNDUP
NATIONAL WEATHER SERVICE CHICAGO/ROMEOVILLE IL
400 AM CDT WED JUL 26 2017

NOTE: "FAIR" INDICATES FEW OR NO CLOUDS BELOW 12,000 FEET WITH NO
SIGNIFICANT WEATHER AND/OR OBSTRUCTIONS TO VISIBILITY.

* THESE STATIONS ARE NOT UNDER NWS QUALITY CONTROL. THEY ALSO MAY NOT
  REPORT WEATHER SUCH AS PRECIPITATION OR FOG.

ILZ001-002-007-009-015-016-024-261000-
NORTHWEST ILLINOIS

CITY           SKY/WX    TMP DP  RH WIND       PRES   REMARKS
MOLINE         PTCLDY    71  66  84 S6        30.05F
STERLING*      CLOUDY    67  63  87 CALM      30.09S
SAVANNA*       CLOUDY    67  64  91 S7        30.06F
$$

ILZ003-004-008-010-011-017-018-261000-
NORTH CENTRAL ILLINOIS

CITY           SKY/WX    TMP DP  RH WIND       PRES   REMARKS
ROCKFORD       MOCLDY    67  61  81 S7        30.10S
FREEPORT*      MOCLDY    65  62  90 S6        30.10F
ROCHELLE*      PTCLDY    63  62  96 S3        30.11S
DE KALB*       PTCLDY    64  61  90 S7        30.12S
PERU*          CLOUDY   N/A N/A N/A S7        30.10F
$$

ILZ005-006-012>014-019>023-261000-
NORTHEAST ILLINOIS

CITY           SKY/WX    TMP DP  RH WIND       PRES   REMARKS
CHICAGO-OHARE  MOCLDY    66  59  78 S3        30.11S
CHICAGO-MIDWAY MOCLDY    70  60  70 S7        30.11S
AURORA         CLOUDY    65  61  87 CALM      30.12S
LANSING*       PTCLDY    65  58  78 S3        30.13S
JOLIET*        PTCLDY    66  62  85 SE3       30.12S
WAUKEGAN       PTCLDY    67  59  75 S8        30.09F
DUPAGE AIRPORT PTCLDY    65  61  87 CALM      30.11S
KANKAKEE*      PTCLDY    63  61  94 CALM      30.13F
WHEELING       CLEAR     67  62  84 S5        30.12F
MORRIS*        CLOUDY    64  60  89 CALM      30.10F
ROMEOVILLE*    PTCLDY    64  59  83 S7        30.12S
NORTHERLY ISL    N/A     69  58  67 S3          N/A
$$

LMZ740>746-261000-
SOUTHERN LAKE MICHIGAN

STATION/POSITION SKY/WX   TEMP    WIND        PRES    VSBY  WAVE
                          AIR SEA DIR/SP/G                  HT/PER
                          (F)     (DEG/KT/KT) (MB)    (MI)  (FT/S)
SOUTHERN BUOY              72 71  190/ 14/ 14 1020.1          1/ 4
WILMETTE HARBOR            72 71  180/ 10/ 12   N/A           2/ 4
HARRISON CRIB              72     180/ 14/ 15   N/A
BURNHAM HARBOR             69                   N/A
CALUMET HARBOR             69     180/  4/  6 1019.5F
BURNS HARBOR               70     180/  9/ 13 1020.3F
MICHIGAN CITY              69     160/  7/  9   N/A
MICHIGAN CITY 6N           69 74  180/ 12/ 16   N/A           1/ 2
ST. JOSEPH                 68 72  190/ 10/ 12 1020.0          1/ 2
$$

ILZ025>027-034>036-040-047-049-050-058-095>099-261000-
WEST-CENTRAL ILLINOIS

CITY           SKY/WX    TMP DP  RH WIND       PRES   REMARKS
QUINCY         MOCLDY    71  68  90 SE6       30.05F
GALESBURG*     PTCLDY    69  66  90 SE3       30.08F
MACOMB*        MOCLDY    67  66  97 CALM      30.09F
JACKSONVILLE*  MOCLDY    69  67  93 E5        30.07F
PITTSFIELD*    CLOUDY    71  69  95 SE3       30.07F
$$

ILZ028>032-037-038-041>044-048-051>054-059>061-261000-
CENTRAL ILLINOIS

CITY           SKY/WX    TMP DP  RH WIND       PRES   REMARKS
PONTIAC        CLOUDY    62  62  99 SE3       30.12F
BLOOMINGTON    CLOUDY    66  62  87 S7        30.12F
DECATUR        CLEAR     67  64  90 SE3       30.10F
PEORIA         MOCLDY    71  66  84 SE3       30.09F
LACON*         PTCLDY    65  63  93 CALM      30.09S
LINCOLN*       MOCLDY    67  66  99 CALM      30.09F
SPRINGFIELD    MOCLDY    70  68  93 SE6       30.09F
TAYLORVILLE    PTCLDY    69  67  93 SE5       30.09F
$$

ILZ033-039-045-046-055>057-062-063-261000-
EAST-CENTRAL ILLINOIS

CITY           SKY/WX    TMP DP  RH WIND       PRES   REMARKS
CHAMPAIGN      CLEAR     62  60  93 E5        30.11F
RANTOUL*       CLEAR     65  63  92 CALM      30.12F
MATTOON        CLEAR     66  64  93 SE6       30.10F
PARIS*         CLEAR     62  61  97 SE5       30.12F
$$

ILZ079-100>102-261000-
SOUTHWEST ILLINOIS

CITY           SKY/WX    TMP DP  RH WIND       PRES   REMARKS
ALTON          CLOUDY    73  71  95 CALM      30.07F
BELLEVILLE     CLEAR     73  70  90 CALM      30.08F
CAHOKIA*       CLEAR     76  69  79 SE8       30.06S
SPARTA*        CLEAR     74  71  90 SE6       30.08F
$$

ILZ064>066-069>071-074>076-080>082-084>086-088>090-092>094-261000-
SOUTH-CENTRAL ILLINOIS

CITY           SKY/WX    TMP DP  RH WIND       PRES   REMARKS
CARBONDALE     CLEAR     73  73 100 CALM      30.08S
CAIRO*         CLEAR     74  74 100 CALM      30.08R FOG
EFFINGHAM*     CLEAR     67  67 100 E5        30.11F
MARION         PTCLDY    75  75 100 CALM      30.09F
MT. VERNON     CLEAR     72  69  90 CALM      30.09F
CENTRALIA*     CLEAR     73  70  92 E3        30.08F
SALEM*         CLEAR     74  68  82 E3        30.09F
METROPOLIS*    PTCLDY    73  72  98 CALM      30.10R
$$

ILZ067-068-072-073-078-083-087-091-261000-
SOUTHEAST ILLINOIS

CITY           SKY/WX    TMP DP  RH WIND       PRES   REMARKS
LAWRENCEVILLE  CLOUDY    70  66  87 E6        30.11F
FLORA*         PTCLDY    72  67  86 CALM      30.10F
FAIRFIELD*     MOCLDY    71  69  95 CALM      30.09F
HARRISBURG*    CLEAR     73  72  95 NE3       30.10R
ROBINSON*      PTCLDY    65  64  97 E3        30.12F
CARMI*         PTCLDY    70  69  97 CALM      30.09F
$$

ABBREVIATIONS USED IN REMARKS
   TC - TEMPERATURE IN CELSIUS
  WCI - WIND CHILL INDEX
   HX - HEAT INDEX
  VSB - VISIBILITY
$$





USA.gov is the U.S. government's official web portal to all federal, state and local government web resources and services.